Stampede Pass, WA
on Tuesday, February 12, 2013

Tuesday
Previous Day Next Day
Daily Summary
 ActualAverage (KEAT)Record (KEAT)
Temperature
Mean Temperature °F / °C 31°F / -1°C  
Max Temperature 34°F / 1°C 38°F / 3°C 59°F / 15°C (2011)
Min Temperature 30°F / -1°C 23°F / -5°C 16°F / -8°C (1989)
Degree Days
Heating Degree Days 33 34  
Month to date heating degree days 418  
Since 1 July heating degree days 4675  
Cooling Degree Days 0 0  
Month to date cooling degree days 0  
Year to date cooling degree days 0  
Moisture
Dew Point 30°F / -1°C   
Average Humidity 88    
Maximum Humidity 96    
Minimum Humidity 81    
Precipitation
Precipitation 0.03 in / 0.76 cm 0.06 in / 1.52 cm 0.33 in / 0.84 cm (1998)
Month to date precipitation 0.64  
Year to date precipitation 2.51  
Snow
Snow 0.00 in / 0.00 cm 0.20 in / 0.51 cm in / cm ()
Month to date snowfall 3.2  
Since 1 July snowfall 43.6  
Snow Depth in / cm   
Wind
Wind Speed 10 mph / 16 km/h   
Max Wind Speed 17 mph / 27 km/h   
Max Gust Speed 38 mph / 61 km/h   
Visibility 2 miles / 3 kilometers   
Events Fog , Rain , Snow   

Key: T is trace of precipitation, MM is missing value
Source: NWS Daily Summary
Time(PST)TemperatureDew PointHumidity Pressure Visibility Wind DirectionWind SpeedGust SpeedPrecipitationEvents Conditions
12:01 AM 33.8°F / 1.0°C 28.4°F / -2.0°C 81% 30.22 in / 1023.2 hPa 1.8 miles / 2.8 kilometers West 9.2 mph / 14.8 km/h 20.7 mph / 33.3 km/h N/A   Overcast
12:35 AM 33.8°F / 1.0°C 28.4°F / -2.0°C 81% 30.22 in / 1023.2 hPa 3.0 miles / 4.8 kilometers West 10.4 mph / 16.7 km/h 19.6 mph / 31.5 km/h N/A   Overcast
12:47 AM 33.8°F / 1.0°C 28.4°F / -2.0°C 81% 30.22 in / 1023.2 hPa 1.2 miles / 2.0 kilometers West 8.1 mph / 13.0 km/h 20.7 mph / 33.3 km/h N/A   Overcast
1:28 AM 33.8°F / 1.0°C 28.4°F / -2.0°C 81% 30.21 in / 1022.9 hPa 0.5 miles / 0.8 kilometers West 11.5 mph / 18.5 km/h 19.6 mph / 31.5 km/h N/A Fog Fog
1:41 AM 32.0°F / 0.0°C 28.4°F / -2.0°C 87% 30.22 in / 1023.2 hPa 0.2 miles / 0.4 kilometers West 10.4 mph / 16.7 km/h 17.3 mph / 27.8 km/h N/A Fog Fog
3:09 AM 30.2°F / -1.0°C 28.4°F / -2.0°C 93% 30.22 in / 1023.2 hPa 0.5 miles / 0.8 kilometers West 10.4 mph / 16.7 km/h 20.7 mph / 33.3 km/h N/A Fog Light Freezing Fog
4:44 AM 32.0°F / 0.0°C 28.4°F / -2.0°C 87% 30.23 in / 1023.6 hPa 1.0 miles / 1.6 kilometers West 9.2 mph / 14.8 km/h - N/A   Overcast
5:56 AM 32.0°F / 0.0°C 28.9°F / -1.7°C 88% 30.31 in / 1026.4 hPa 0.8 miles / 1.2 kilometers West 8.1 mph / 13.0 km/h - N/A   Overcast
8:56 AM 32.0°F / 0.0°C 30.0°F / -1.1°C 92% 30.35 in / 1027.8 hPa 0.2 miles / 0.4 kilometers West 8.1 mph / 13.0 km/h 17.3 mph / 27.8 km/h 0.00 in / 0.0 cm Fog Fog
9:27 AM 32.0°F / 0.0°C 30.2°F / -1.0°C 93% 30.27 in / 1024.9 hPa 1.0 miles / 1.6 kilometers Variable 6.9 mph / 11.1 km/h - N/A   Overcast
11:23 AM 33.8°F / 1.0°C 30.2°F / -1.0°C 87% 30.27 in / 1024.9 hPa 0.2 miles / 0.4 kilometers West 9.2 mph / 14.8 km/h 18.4 mph / 29.6 km/h 0.01 in / 0.3 cm Fog Fog
11:51 AM 33.8°F / 1.0°C 30.2°F / -1.0°C 87% 30.27 in / 1024.9 hPa 0.5 miles / 0.8 kilometers West 11.5 mph / 18.5 km/h 20.7 mph / 33.3 km/h 0.01 in / 0.3 cm Fog Fog
4:08 PM 33.8°F / 1.0°C 32.0°F / 0.0°C 93% 30.24 in / 1023.9 hPa 2.0 miles / 3.2 kilometers West 10.4 mph / 16.7 km/h 21.9 mph / 35.2 km/h 0.00 in / 0.0 cm   Overcast
4:15 PM 33.8°F / 1.0°C 30.2°F / -1.0°C 87% 30.24 in / 1023.9 hPa 10.0 miles / 16.1 kilometers West 13.8 mph / 22.2 km/h 21.9 mph / 35.2 km/h 0.00 in / 0.0 cm   Overcast
4:22 PM 33.8°F / 1.0°C 30.2°F / -1.0°C 87% 30.24 in / 1023.9 hPa 10.0 miles / 16.1 kilometers West 10.4 mph / 16.7 km/h 25.3 mph / 40.7 km/h 0.00 in / 0.0 cm   Overcast
4:56 PM 33.1°F / 0.6°C 30.9°F / -0.6°C 92% 30.29 in / 1025.7 hPa 3.0 miles / 4.8 kilometers West 10.4 mph / 16.7 km/h 27.6 mph / 44.4 km/h 0.00 in / 0.0 cm   Overcast
4:59 PM 33.8°F / 1.0°C 30.2°F / -1.0°C 87% 30.22 in / 1023.2 hPa 1.8 miles / 2.8 kilometers West 10.4 mph / 16.7 km/h 27.6 mph / 44.4 km/h 0.00 in / 0.0 cm   Overcast
7:05 PM 33.8°F / 1.0°C 32.0°F / 0.0°C 93% 30.22 in / 1023.2 hPa 1.8 miles / 2.8 kilometers West 13.8 mph / 22.2 km/h 27.6 mph / 44.4 km/h 0.02 in / 0.5 cm Snow Light Snow
10:56 PM 34.0°F / 1.1°C 33.1°F / 0.6°C 96% 30.26 in / 1024.5 hPa 1.8 miles / 2.8 kilometers West 17.3 mph / 27.8 km/h 34.5 mph / 55.6 km/h 0.03 in / 0.8 cm Rain Light Rain
11:10 PM 33.8°F / 1.0°C 32.0°F / 0.0°C 93% 30.18 in / 1021.9 hPa 1.2 miles / 2.0 kilometers West 17.3 mph / 27.8 km/h 38.0 mph / 61.1 km/h 0.00 in / 0.0 cm   Overcast
Moon Phase
Feb. 12 Feb. 17 Feb. 25 Mar. 04 Mar. 11
Sunrise:07:14 AM (PST) Moon Rise:08:00 AM (PST)2/12
Sunset:05:25 PM (PST) Moon Set:08:48 PM (PST)2/12

Copyright © 2014 The Weather Underground, Inc.